weather.gov     
National Weather Service

Regional Weather Roundup
NWS Homepage
This page is being discontinued on March 12, 2014.
The same data is available at this site. Please update your bookmarks.
Thank you, and we apologize for the inconvenience.
Please send an email to SR-SRH.Webmaster@noaa.gov with any concerns.


Current Version
Previous Version:    01  02  03  04  05  06  07  08  09  10  11  12  
[Printable]
593
ASUS44 KHUN 021710
RWRHUN

WEATHER ROUNDUP FOR THE TENNESSEE VALLEY
NATIONAL WEATHER SERVICE HUNTSVILLE AL
1200 PM CDT TUE SEP 02 2014

ALZ001>004-021800-
NORTHWEST ALABAMA

CITY           SKY/WX    TMP DP  RH WIND       PRES   REMARKS
SHOALS AIRPORT PTSUNNY   91  72  53 S12G18    30.07F HX  98
$$

ALZ005>007-016-021800-
NORTH CENTRAL ALABAMA

CITY           SKY/WX    TMP DP  RH WIND       PRES   REMARKS
DECATUR AP     MOSUNNY   89  71  55 VRB6      30.08F HX  95
HUNTSVILLE AP  PTSUNNY   88  72  58 S6        30.08F HX  94
MERIDIANVILLE  SUNNY     88  64  45 SW7       30.09F
REDSTONE ARSN  MOSUNNY   88  70  55 SW9       30.10F HX  92
VINEMONT AP    FAIR      85  71  62 SW6       30.13F HX  90
$$

ALZ008>010-021800-
NORTHEAST ALABAMA

CITY           SKY/WX    TMP DP  RH WIND       PRES   REMARKS
ALBERTVILLE    MOSUNNY   88  75  66 W6        30.11F HX  97
FORT PAYNE     MOSUNNY   86  64  48 SW7       30.10S
SCOTTSBORO AP  SUNNY     86  72  62 SW8G16    30.10S HX  92
SCOTTSBORO HCN   N/A     86 N/A N/A MISG        N/A
VALLEY HEAD      N/A     82 N/A N/A MISG        N/A
$$

TNZ076-096-097-021800-
SOUTHEASTERN MIDDLE TENNESSEE

CITY           SKY/WX    TMP DP  RH WIND       PRES   REMARKS
FAYETTEVILLE   MOSUNNY   84  72  65 S8        30.09F
TULLAHOMA      MOSUNNY   86  72  62 SW12      30.10S HX  92
WINCHESTER     SUNNY     88  72  58 SW9       30.09F HX  94
$$

...SURROUNDING SITES...

CITY           SKY/WX    TMP DP  RH WIND       PRES   REMARKS
ATLANTA        MOSUNNY   88  71  57 CALM      30.12F HX  94
ANNISTON       MOSUNNY   88  70  55 VRB5      30.10F HX  93
BIRMINGHAM     PTSUNNY   89  68  49 SW9       30.11F HX  93
CHATTANOOGA    MOSUNNY   89  70  53 VRB7      30.09F HX  94
CORINTH        PTSUNNY   86  73  66 VRB6      30.04F HX  93
DALTON         MOSUNNY   86  72  62 CALM      30.10F HX  92
GADSDEN        PTSUNNY   91  66  43 W8        30.08F HX  94
GOLDEN TRNGL   PTSUNNY   88  73  62 S7        30.07F HX  96
HALEYVILLE     LGT RAIN  80  73  79 NW5       30.12F
JACKSON TN     PTSUNNY   84  75  74 SW10      30.03S HX  92
LEWISBURG      FAIR      88  73  60 SW10      30.05F HX  95
MEMPHIS        PTSUNNY   84  74  71 SW10      30.04F HX  91
MURFREESBORO   FAIR      89  71  55 SW9       30.03F HX  95
NASHVILLE      PTSUNNY   89  72  56 SW9G17    30.03F HX  96
ROME           CLOUDY    88  71  57 NW8       30.09F HX  94
SAVANNAH       SUNNY     88  75  66 SW9       30.05F HX  97
TUPELO         MOSUNNY   89  74  60 S9        30.04F HX  98
TUSCALOOSA     MOSUNNY   88  72  58 VRB3      30.08F HX  94
$$

...GULF COAST WEATHER...

CITY           SKY/WX    TMP DP  RH WIND       PRES   REMARKS
GULFPORT       PTSUNNY   88  73  61 SE9       30.07F HX  95
PASCAGOULA     PTSUNNY   89  73  59 VRB3      30.07F HX  97
MOBILE         MOSUNNY   90  72  55 VRB3      30.09F HX  97
GULF SHORES    MOSUNNY   90  75  61 SE8       30.08F HX 100
PENSACOLA      MOSUNNY   90  75  61 S12G17    30.08F HX 100
DESTIN         SUNNY     90  77  65 VRB6      30.09S HX 103
PANAMA CITY    MOSUNNY   90  76  62 VRB2      30.09F HX 101
APPALACHICOLA  MOSUNNY   91  75  59 SE13      30.08F HX 101
$$





U.S. Dept. of Commerce
NOAA National Weather Service
1325 East West Highway
Silver Spring, MD 20910
E-mail: w-nws.webmaster@noaa.gov
Page last modified: May 16, 2007
NATIONAL WEATHER SERVICE: for Safety, for Work, for Fun - FOR LIFE